ONEWEB-0348, 49213

Orbit data source: Space-Track

ONEWEB-0348, 49213 is a payload satellite owned by One Web (NAA) (UK) in LEO that was launched on Tue, 14 Sep 2021 UTC via a SOYUZ-2-1B launch vehicle from the Tyuratam Missile And Space Complex (TTMTR). Payload-class satellites include a variety of spacecraft equipped with specific instruments for various scientific and technological missions. These include communications satellites like Starlink; space stations such as the ISS; scientific satellites like the Hubble; Earth observation satellites from companies like Planet Labs, Umbra, and HawkEye 360; GPS; miniature CubeSats for education and research; and military/defense satellites.

Loading next visibility...
Identifier
49213, 2021-083AD
Orbit
LEO
Country
Flag of UKUK
Related business
Manufacturer
One Web
Mission
Operational Commercial Communications
Bus & Motor
ARROW, Unknown motor
Mass
148 kg wet, ~140 kg dry
Launch date (UTC)
2021-09-14 (4 years ago)
Launch vehicle
SOYUZ-2-1B
Launch site
Tyuratam Missile And Space Complex (TTMTR)
Object type
Payload
Rocket body
Debris
Shape & HBR
Trap Box + 2 Pan, 2.5 m
Radar Cross Section
2.032 m², Medium (>0.1 m² and < 1m²)

Expand to show TLE details & history
Last TLE update: 14 hours ago

TLE from 14 hours ago
0 ONEWEB-0348
1 49213U 21083AD  25250.23827363  .00000035  00000-0  54782-4 0  9999
2 49213  87.9279 330.8508 0002439 107.6705 252.4694 13.20771229199469
Epoch: 2025-09-07T05:43Z
TLE epoch observation values (Epoch: 2025-09-07T05:43:06.841Z)
Latitude
-0.00011°
Longitude
-101.48833°
Altitude
1,185.235 km
Speed
7.261 km/s
True Right ascension
22h 03m 24s
True Declination
0° 00' 00"
Sunlit
Object was in full shadow at epoch
Visualization orbit readout
Latitude
Unknown
Longitude
Unknown
Altitude
Unknown
Speed
Unknown
Apparent Right ascension
Unknown
Apparent Declination
Unknown
Sunlit
N/A
Visualization observer readout
Local Sidereal Time
11:48:38
Azimuth
Unknown
Elevation
Unknown
Doppler factor
Unknown
Orbital elements
Apogee altitude
1,180.723 km
Perigee altitude
1,177.037 km
Semi-major axis
7,557.017 km
Eccentricity
0.00024
Inclination
87.9279°
RAAN
330.8508°
Arg. of periapsis
107.6705°
True anomaly
252.44275°
Mean anomaly
252.4694°
Eccentric anomaly
252.45608°
Mean motion
3.30383 °/min
Orbital period
108.96 mins
BSTAR
0.000054782
Loading maneuver chart data...
Computing Atmospheric mass density...
Loading historical data...
Loading historical data...
Loading historical data...
Loading historical data...
Loading historical data...
Loading historical data...
Loading historical data...

Documentation

Showing up to 5 results
|